DELTA 1 DEB, 21358

Orbit data source: Space-Track

DELTA 1 DEB, 21358 is space debris in SSO originally from a launch on Thu, 12 Jun 1975 UTC launched from the Air Force Western Test Range (AFWTR). Debris objects in space refer to the collection of defunct objects orbiting the Earth. Examples of debris include non-operational satellites, rocket bodies, and fragments generated from explosions, collisions, or faulty payload assembly.

Loading next visibility...
Identifier
21358, 1975-052CC
Orbit
SSO
Country
Flag of USUS
Related business
Manufacturer
Unknown
Mission
Spacecraft
Bus & Motor
Unknown
Mass
Unknown
Launch date (UTC)
1975-06-12 (51 years ago)
Launch vehicle
Unknown
Launch site
Air Force Western Test Range (AFWTR)
Object type
Payload
Rocket body
Debris
Shape & HBR
Unknown shape, 0.1 m
Radar Cross Section
Medium (>0.1 m² and <1 m²)

Expand to show TLE details & history
Last TLE update: 2 days ago

TLE from 2 days ago
0 DELTA 1 DEB
1 21358U 75052CC  26171.20063854  .00000407  00000-0  10960-2 0  9992
2 21358  99.6382  56.9320 0170478  48.2479  77.8136 13.15649620680412
Epoch: 2026-06-20T04:48Z
TLE epoch observation values (Epoch: 2026-06-20T04:48:55.169Z)
Latitude
51.09283°
Longitude
-91.63272°
Altitude
1,184.313 km
Speed
7.278 km/s
True Right ascension
16h 36m 03s
True Declination
50° 56' 03"
Sunlit
Object was in daylight at epoch
Visualization orbit readout
Latitude
Unknown
Longitude
Unknown
Altitude
Unknown
Speed
Unknown
Apparent Right ascension
Unknown
Apparent Declination
Unknown
Sunlit
N/A
Visualization observer readout
Local Sidereal Time
14:35:13
Azimuth
Unknown
Elevation
Unknown
Doppler factor
Unknown
Orbital elements
Apogee altitude
1,327.895 km
Perigee altitude
1,069.557 km
Semi-major axis
7,576.863 km
Eccentricity
0.01705
Inclination
99.6382°
RAAN
56.932°
Arg. of periapsis
48.2479°
True anomaly
79.73138°
Mean anomaly
77.8136°
Eccentric anomaly
78.77167°
Mean motion
3.29086 °/min
Orbital period
109.39 mins
BSTAR
0.001096
Loading maneuver chart data...
Computing Atmospheric mass density...
Loading historical data...
Loading historical data...
Loading historical data...
Loading historical data...
Loading historical data...
Loading historical data...
Loading historical data...

Documentation

Showing up to 5 results
|